Volver al catálogo

STARLINK-34380

ActivoComunicacionesVLEO
NORAD 64307·PAYLOAD·🇺🇸 United States

Lanzado Jun 8, 2025 desde Vandenberg Space Force Base

Loading…

Próximos Pases (próximas 24 horas)

TLE

ActualizadoSource: CelesTrak SupGP

Época: Sep 14, 2026, 21:02 UTC

1 64307C 25123S   26257.87687500  .00004418  00000+0  15374-3 0  2572
2 64307  70.0000  75.8082 0003180 273.1601 246.1434 15.29568109    12

Sigue STARLINK-34380 en tiempo real con AllMySat

Download on the App Store